Year,Month,Day,Hour,Minute,Value (Times are PST for temperature in C)
2016,08,25,00,00,16.70
2016,08,25,00,01,16.70
2016,08,25,00,02,16.70
2016,08,25,00,03,16.70
2016,08,25,00,04,16.70
2016,08,25,00,05,16.70
2016,08,25,00,06,16.70
2016,08,25,00,07,16.70
2016,08,25,00,08,16.70
2016,08,25,00,09,16.60
2016,08,25,00,10,16.60
2016,08,25,00,11,16.60
2016,08,25,00,12,16.60
2016,08,25,00,13,16.50
2016,08,25,00,14,16.40
2016,08,25,00,15,16.40
2016,08,25,00,16,16.40
2016,08,25,00,17,16.30
2016,08,25,00,18,16.30
2016,08,25,00,19,16.20
2016,08,25,00,20,16.20
2016,08,25,00,21,16.20
2016,08,25,00,22,16.10
2016,08,25,00,23,16.10
2016,08,25,00,24,16.10
2016,08,25,00,25,16.10
2016,08,25,00,26,16.10
2016,08,25,00,27,16.10
2016,08,25,00,28,16.00
2016,08,25,00,29,15.90
2016,08,25,00,30,15.90
2016,08,25,00,31,15.90
2016,08,25,00,32,15.90
2016,08,25,00,33,15.90
2016,08,25,00,34,15.80
2016,08,25,00,35,15.80
2016,08,25,00,36,15.80
2016,08,25,00,37,15.80
2016,08,25,00,38,15.80
2016,08,25,00,39,15.80
2016,08,25,00,40,15.80
2016,08,25,00,41,15.80
2016,08,25,00,42,15.80
2016,08,25,00,43,15.80
2016,08,25,00,44,15.80
2016,08,25,00,45,15.80
2016,08,25,00,46,15.80
2016,08,25,00,47,15.80
2016,08,25,00,48,15.80
2016,08,25,00,49,15.80
2016,08,25,00,50,15.90
2016,08,25,00,51,15.90
2016,08,25,00,52,15.90
2016,08,25,00,53,15.90
2016,08,25,00,54,15.90
2016,08,25,00,55,15.90
2016,08,25,00,56,15.90
2016,08,25,00,57,15.90
2016,08,25,00,58,15.90
2016,08,25,00,59,15.90
2016,08,25,01,00,15.90
2016,08,25,01,01,15.90
2016,08,25,01,02,15.90
2016,08,25,01,03,15.90
2016,08,25,01,04,15.90
2016,08,25,01,05,15.90
2016,08,25,01,06,15.90
2016,08,25,01,07,15.80
2016,08,25,01,08,15.80
2016,08,25,01,09,15.80
2016,08,25,01,10,15.80
2016,08,25,01,11,15.80
2016,08,25,01,12,15.80
2016,08,25,01,13,15.80
2016,08,25,01,14,15.70
2016,08,25,01,15,15.70
2016,08,25,01,16,15.70
2016,08,25,01,17,15.60
2016,08,25,01,18,15.60
2016,08,25,01,19,15.60
2016,08,25,01,20,15.60
2016,08,25,01,21,15.60
2016,08,25,01,22,15.60
2016,08,25,01,23,15.50
2016,08,25,01,24,15.50
2016,08,25,01,25,15.50
2016,08,25,01,26,15.50
2016,08,25,01,27,15.50
2016,08,25,01,28,15.50
2016,08,25,01,29,15.50
2016,08,25,01,30,15.50
2016,08,25,01,31,15.50
2016,08,25,01,32,15.50
2016,08,25,01,33,15.50
2016,08,25,01,34,15.50
2016,08,25,01,35,15.50
2016,08,25,01,36,15.50
2016,08,25,01,37,15.50
2016,08,25,01,38,15.40
2016,08,25,01,39,15.40
2016,08,25,01,40,15.40
2016,08,25,01,41,15.30
2016,08,25,01,42,15.30
2016,08,25,01,43,15.30
2016,08,25,01,44,15.30
2016,08,25,01,45,15.30
2016,08,25,01,46,15.30
2016,08,25,01,47,15.30
2016,08,25,01,48,15.30
2016,08,25,01,49,15.20
2016,08,25,01,50,15.20
2016,08,25,01,51,15.20
2016,08,25,01,52,15.10
2016,08,25,01,53,15.10
2016,08,25,01,54,15.10
2016,08,25,01,55,15.10
2016,08,25,01,56,15.00
2016,08,25,01,57,15.00
2016,08,25,01,58,15.00
2016,08,25,01,59,15.00
2016,08,25,02,00,14.90
2016,08,25,02,01,14.90
2016,08,25,02,02,14.90
2016,08,25,02,03,14.90
2016,08,25,02,04,14.80
2016,08,25,02,05,14.80
2016,08,25,02,06,14.80
2016,08,25,02,07,14.80
2016,08,25,02,08,14.80
2016,08,25,02,09,14.90
2016,08,25,02,10,14.90
2016,08,25,02,11,14.90
2016,08,25,02,12,14.90
2016,08,25,02,13,15.00
2016,08,25,02,14,15.00
2016,08,25,02,15,15.00
2016,08,25,02,16,15.10
2016,08,25,02,17,15.10
2016,08,25,02,18,15.10
2016,08,25,02,19,15.10
2016,08,25,02,20,15.10
2016,08,25,02,21,15.10
2016,08,25,02,22,15.10
2016,08,25,02,23,15.10
2016,08,25,02,24,15.10
2016,08,25,02,25,15.10
2016,08,25,02,26,15.10
2016,08,25,02,27,15.10
2016,08,25,02,28,15.10
2016,08,25,02,29,15.10
2016,08,25,02,30,15.10
2016,08,25,02,31,15.10
2016,08,25,02,32,15.10
2016,08,25,02,33,15.10
2016,08,25,02,34,15.10
2016,08,25,02,35,15.10
2016,08,25,02,36,15.10
2016,08,25,02,37,15.00
2016,08,25,02,38,15.00
2016,08,25,02,39,15.00
2016,08,25,02,40,15.00
2016,08,25,02,41,15.00
2016,08,25,02,42,15.00
2016,08,25,02,43,15.00
2016,08,25,02,44,15.00
2016,08,25,02,45,15.00
2016,08,25,02,46,15.00
2016,08,25,02,47,15.00
2016,08,25,02,48,15.00
2016,08,25,02,49,15.00
2016,08,25,02,50,15.00
2016,08,25,02,51,15.00
2016,08,25,02,52,15.00
2016,08,25,02,53,15.00
2016,08,25,02,54,15.00
2016,08,25,02,55,15.10
2016,08,25,02,56,15.10
2016,08,25,02,57,15.10
2016,08,25,02,58,15.10
2016,08,25,02,59,15.20
2016,08,25,03,00,15.20
2016,08,25,03,01,15.20
2016,08,25,03,02,15.20
2016,08,25,03,03,15.30
2016,08,25,03,04,15.30
2016,08,25,03,05,15.30
2016,08,25,03,06,15.30
2016,08,25,03,07,15.30
2016,08,25,03,08,15.40
2016,08,25,03,09,15.40
2016,08,25,03,10,15.40
2016,08,25,03,11,15.40
2016,08,25,03,12,15.40
2016,08,25,03,13,15.30
2016,08,25,03,14,15.30
2016,08,25,03,15,15.30
2016,08,25,03,16,15.30
2016,08,25,03,17,15.30
2016,08,25,03,18,15.30
2016,08,25,03,19,15.30
2016,08,25,03,20,15.30
2016,08,25,03,21,15.30
2016,08,25,03,22,15.30
2016,08,25,03,23,15.30
2016,08,25,03,24,15.30
2016,08,25,03,25,15.30
2016,08,25,03,26,15.30
2016,08,25,03,27,15.20
2016,08,25,03,28,15.20
2016,08,25,03,29,15.20
2016,08,25,03,30,15.20
2016,08,25,03,31,15.20
2016,08,25,03,32,15.20
2016,08,25,03,33,15.20
2016,08,25,03,34,15.20
2016,08,25,03,35,15.10
2016,08,25,03,36,15.10
2016,08,25,03,37,15.10
2016,08,25,03,38,15.20
2016,08,25,03,39,15.20
2016,08,25,03,40,15.20
2016,08,25,03,41,15.20
2016,08,25,03,42,15.20
2016,08,25,03,43,15.20
2016,08,25,03,44,15.20
2016,08,25,03,45,15.20
2016,08,25,03,46,15.20
2016,08,25,03,47,15.20
2016,08,25,03,48,15.20
2016,08,25,03,49,15.20
2016,08,25,03,50,15.20
2016,08,25,03,51,15.20
2016,08,25,03,52,15.20
2016,08,25,03,53,15.20
2016,08,25,03,54,15.30
2016,08,25,03,55,15.30
2016,08,25,03,56,15.30
2016,08,25,03,57,15.30
2016,08,25,03,58,15.30
2016,08,25,03,59,15.30
2016,08,25,04,00,15.30
2016,08,25,04,01,15.30
2016,08,25,04,02,15.30
2016,08,25,04,03,15.30
2016,08,25,04,04,15.30
2016,08,25,04,05,15.30
2016,08,25,04,06,15.30
2016,08,25,04,07,15.30
2016,08,25,04,08,15.30
2016,08,25,04,09,15.30
2016,08,25,04,10,15.30
2016,08,25,04,11,15.30
2016,08,25,04,12,15.30
2016,08,25,04,13,15.30
2016,08,25,04,14,15.30
2016,08,25,04,15,15.30
2016,08,25,04,16,15.30
2016,08,25,04,17,15.20
2016,08,25,04,18,15.20
2016,08,25,04,19,15.20
2016,08,25,04,20,15.10
2016,08,25,04,21,15.10
2016,08,25,04,22,15.00
2016,08,25,04,23,15.00
2016,08,25,04,24,15.00
2016,08,25,04,25,14.90
2016,08,25,04,26,14.90
2016,08,25,04,27,14.90
2016,08,25,04,28,14.80
2016,08,25,04,29,14.80
2016,08,25,04,30,14.80
2016,08,25,04,31,14.80
2016,08,25,04,32,14.70
2016,08,25,04,33,14.70
2016,08,25,04,34,14.70
2016,08,25,04,35,14.60
2016,08,25,04,36,14.60
2016,08,25,04,37,14.60
2016,08,25,04,38,14.50
2016,08,25,04,39,14.50
2016,08,25,04,40,14.50
2016,08,25,04,41,14.40
2016,08,25,04,42,14.40
2016,08,25,04,43,14.30
2016,08,25,04,44,14.20
2016,08,25,04,45,14.20
2016,08,25,04,46,14.20
2016,08,25,04,47,14.20
2016,08,25,04,48,14.20
2016,08,25,04,49,14.20
2016,08,25,04,50,14.20
2016,08,25,04,51,14.20
2016,08,25,04,52,14.20
2016,08,25,04,53,14.20
2016,08,25,04,54,14.20
2016,08,25,04,55,14.20
2016,08,25,04,56,14.20
2016,08,25,04,57,14.20
2016,08,25,04,58,14.20
2016,08,25,04,59,14.20
2016,08,25,05,00,14.20
2016,08,25,05,01,14.20
2016,08,25,05,02,14.20
2016,08,25,05,03,14.20
2016,08,25,05,04,14.20
2016,08,25,05,05,14.20
2016,08,25,05,06,14.20
2016,08,25,05,07,14.20
2016,08,25,05,08,14.20
2016,08,25,05,09,14.20
2016,08,25,05,10,14.20
2016,08,25,05,11,14.20
2016,08,25,05,12,14.10
2016,08,25,05,13,14.00
2016,08,25,05,14,14.00
2016,08,25,05,15,13.90
2016,08,25,05,16,13.90
2016,08,25,05,17,13.80
2016,08,25,05,18,13.80
2016,08,25,05,19,13.70
2016,08,25,05,20,13.70
2016,08,25,05,21,13.70
2016,08,25,05,22,13.70
2016,08,25,05,23,13.70
2016,08,25,05,24,13.70
2016,08,25,05,25,13.70
2016,08,25,05,26,13.70
2016,08,25,05,27,13.70
2016,08,25,05,28,13.80
2016,08,25,05,29,13.80
2016,08,25,05,30,13.80
2016,08,25,05,31,13.70
2016,08,25,05,32,13.70
2016,08,25,05,33,13.70
2016,08,25,05,34,13.70
2016,08,25,05,35,13.70
2016,08,25,05,36,13.70
2016,08,25,05,37,13.70
2016,08,25,05,38,13.70
2016,08,25,05,39,13.70
2016,08,25,05,40,13.70
2016,08,25,05,41,13.60
2016,08,25,05,42,13.60
2016,08,25,05,43,13.60
2016,08,25,05,44,13.60
2016,08,25,05,45,13.60
2016,08,25,05,46,13.60
2016,08,25,05,47,13.60
2016,08,25,05,48,13.60
2016,08,25,05,49,13.50
2016,08,25,05,50,13.50
2016,08,25,05,51,13.50
2016,08,25,05,52,13.50
2016,08,25,05,53,13.50
2016,08,25,05,54,13.50
2016,08,25,05,55,13.50
2016,08,25,05,56,13.50
2016,08,25,05,57,13.50
2016,08,25,05,58,13.50
2016,08,25,05,59,13.50
2016,08,25,06,00,13.50
2016,08,25,06,01,13.50
2016,08,25,06,02,13.50
2016,08,25,06,03,13.50
2016,08,25,06,04,13.50
2016,08,25,06,05,13.50
2016,08,25,06,06,13.50
2016,08,25,06,07,13.50
2016,08,25,06,08,13.50
2016,08,25,06,09,13.50
2016,08,25,06,10,13.50
2016,08,25,06,11,13.50
2016,08,25,06,12,13.40
2016,08,25,06,13,13.40
2016,08,25,06,14,13.40
2016,08,25,06,15,13.40
2016,08,25,06,16,13.40
2016,08,25,06,17,13.40
2016,08,25,06,18,13.40
2016,08,25,06,19,13.40
2016,08,25,06,20,13.40
2016,08,25,06,21,13.40
2016,08,25,06,22,13.40
2016,08,25,06,23,13.30
2016,08,25,06,24,13.30
2016,08,25,06,25,13.30
2016,08,25,06,26,13.30
2016,08,25,06,27,13.30
2016,08,25,06,28,13.30
2016,08,25,06,29,13.30
2016,08,25,06,30,13.30
2016,08,25,06,31,13.30
2016,08,25,06,32,13.20
2016,08,25,06,33,13.20
2016,08,25,06,34,13.20
2016,08,25,06,35,13.10
2016,08,25,06,36,13.10
2016,08,25,06,37,13.00
2016,08,25,06,38,13.00
2016,08,25,06,39,12.90
2016,08,25,06,40,12.90
2016,08,25,06,41,12.90
2016,08,25,06,42,12.90
2016,08,25,06,43,12.90
2016,08,25,06,44,12.90
2016,08,25,06,45,12.90
2016,08,25,06,46,12.90
2016,08,25,06,47,12.90
2016,08,25,06,48,13.00
2016,08,25,06,49,13.00
2016,08,25,06,50,13.00
2016,08,25,06,51,13.00
2016,08,25,06,52,13.10
2016,08,25,06,53,13.10
2016,08,25,06,54,13.10
2016,08,25,06,55,13.10
2016,08,25,06,56,13.10
2016,08,25,06,57,13.10
2016,08,25,06,58,13.10
2016,08,25,06,59,13.10
2016,08,25,07,00,13.10
2016,08,25,07,01,13.20
2016,08,25,07,02,13.20
2016,08,25,07,03,13.20
2016,08,25,07,04,13.30
2016,08,25,07,05,13.30
2016,08,25,07,06,13.30
2016,08,25,07,07,13.40
2016,08,25,07,08,13.50
2016,08,25,07,09,13.50
2016,08,25,07,10,13.60
2016,08,25,07,11,13.60
2016,08,25,07,12,13.70
2016,08,25,07,13,13.70
2016,08,25,07,14,13.70
2016,08,25,07,15,13.80
2016,08,25,07,16,13.90
2016,08,25,07,17,13.90
2016,08,25,07,18,14.00
2016,08,25,07,19,14.00
2016,08,25,07,20,14.10
2016,08,25,07,21,14.10
2016,08,25,07,22,14.20
2016,08,25,07,23,14.20
2016,08,25,07,24,14.20
2016,08,25,07,25,14.20
2016,08,25,07,26,14.20
2016,08,25,07,27,14.20
2016,08,25,07,28,14.30
2016,08,25,07,29,14.30
2016,08,25,07,30,14.30
2016,08,25,07,31,14.40
2016,08,25,07,32,14.40
2016,08,25,07,33,14.50
2016,08,25,07,34,14.50
2016,08,25,07,35,14.50
2016,08,25,07,36,14.50
2016,08,25,07,37,14.60
2016,08,25,07,38,14.60
2016,08,25,07,39,14.60
2016,08,25,07,40,14.60
2016,08,25,07,41,14.60
2016,08,25,07,42,14.70
2016,08,25,07,43,14.70
2016,08,25,07,44,14.80
2016,08,25,07,45,14.80
2016,08,25,07,46,14.90
2016,08,25,07,47,15.00
2016,08,25,07,48,15.10
2016,08,25,07,49,15.30
2016,08,25,07,50,15.40
2016,08,25,07,51,15.50
2016,08,25,07,52,15.50
2016,08,25,07,53,15.60
2016,08,25,07,54,15.70
2016,08,25,07,55,15.80
2016,08,25,07,56,15.80
2016,08,25,07,57,15.90
2016,08,25,07,58,16.00
2016,08,25,07,59,16.10
2016,08,25,08,00,16.20
2016,08,25,08,01,16.30
2016,08,25,08,02,16.40
2016,08,25,08,03,16.40
2016,08,25,08,04,16.60
2016,08,25,08,05,16.70
2016,08,25,08,06,16.70
2016,08,25,08,07,16.80
2016,08,25,08,08,17.00
2016,08,25,08,09,17.00
2016,08,25,08,10,17.20
2016,08,25,08,11,17.30
2016,08,25,08,12,17.40
2016,08,25,08,13,17.50
2016,08,25,08,14,17.60
2016,08,25,08,15,17.70
2016,08,25,08,16,17.70
2016,08,25,08,17,17.80
2016,08,25,08,18,17.80
2016,08,25,08,19,17.90
2016,08,25,08,20,17.90
2016,08,25,08,21,17.90
2016,08,25,08,22,18.00
2016,08,25,08,23,18.10
2016,08,25,08,24,18.10
2016,08,25,08,25,18.20
2016,08,25,08,26,18.20
2016,08,25,08,27,18.30
2016,08,25,08,28,18.40
2016,08,25,08,29,18.50
2016,08,25,08,30,18.60
2016,08,25,08,31,18.70
2016,08,25,08,32,18.80
2016,08,25,08,33,18.90
2016,08,25,08,34,19.10
2016,08,25,08,35,19.10
2016,08,25,08,36,19.20
2016,08,25,08,37,19.30
2016,08,25,08,38,19.40
2016,08,25,08,39,19.50
2016,08,25,08,40,19.50
2016,08,25,08,41,19.60
2016,08,25,08,42,19.70
2016,08,25,08,43,19.80
2016,08,25,08,44,19.80
2016,08,25,08,45,19.90
2016,08,25,08,46,19.90
2016,08,25,08,47,19.90
2016,08,25,08,48,19.90
2016,08,25,08,49,19.90
2016,08,25,08,50,19.90
2016,08,25,08,51,19.90
2016,08,25,08,52,20.00
2016,08,25,08,53,20.10
2016,08,25,08,54,20.10
2016,08,25,08,55,20.20
2016,08,25,08,56,20.20
2016,08,25,08,57,20.20
2016,08,25,08,58,20.30
2016,08,25,08,59,20.40
2016,08,25,09,00,20.50
2016,08,25,09,01,20.50
2016,08,25,09,02,20.60
2016,08,25,09,03,20.70
2016,08,25,09,04,20.80
2016,08,25,09,05,20.80
2016,08,25,09,06,20.90
2016,08,25,09,07,21.00
2016,08,25,09,08,21.00
2016,08,25,09,09,21.10
2016,08,25,09,10,21.20
2016,08,25,09,11,21.20
2016,08,25,09,12,21.20
2016,08,25,09,13,21.30
2016,08,25,09,14,21.30
2016,08,25,09,15,21.30
2016,08,25,09,16,21.30
2016,08,25,09,17,21.40
2016,08,25,09,18,21.50
2016,08,25,09,19,21.60
2016,08,25,09,20,21.70
2016,08,25,09,21,21.70
2016,08,25,09,22,21.90
2016,08,25,09,23,22.00
2016,08,25,09,24,22.00
2016,08,25,09,25,22.10
2016,08,25,09,26,22.20
2016,08,25,09,27,22.20
2016,08,25,09,28,22.20
2016,08,25,09,29,22.30
2016,08,25,09,30,22.30
2016,08,25,09,31,22.30
2016,08,25,09,32,22.40
2016,08,25,09,33,22.40
2016,08,25,09,34,22.40
2016,08,25,09,35,22.40
2016,08,25,09,36,22.40
2016,08,25,09,37,22.50
2016,08,25,09,38,22.60
2016,08,25,09,39,22.60
2016,08,25,09,40,22.70
2016,08,25,09,41,22.80
2016,08,25,09,42,22.90
2016,08,25,09,43,22.90
2016,08,25,09,44,22.90
2016,08,25,09,45,23.00
2016,08,25,09,46,23.10
2016,08,25,09,47,23.10
2016,08,25,09,48,23.20
2016,08,25,09,49,23.30
2016,08,25,09,50,23.30
2016,08,25,09,51,23.30
2016,08,25,09,52,23.40
2016,08,25,09,53,23.40
2016,08,25,09,54,23.40
2016,08,25,09,55,23.40
2016,08,25,09,56,23.40
2016,08,25,09,57,23.40
2016,08,25,09,58,23.50
2016,08,25,09,59,23.60
2016,08,25,10,00,23.60
2016,08,25,10,01,23.70
2016,08,25,10,02,23.70
2016,08,25,10,03,23.60
2016,08,25,10,04,23.60
2016,08,25,10,05,23.60
2016,08,25,10,06,23.70
2016,08,25,10,07,23.70
2016,08,25,10,08,23.70
2016,08,25,10,09,23.70
2016,08,25,10,10,23.80
2016,08,25,10,11,23.80
2016,08,25,10,12,23.80
2016,08,25,10,13,23.80
2016,08,25,10,14,23.80
2016,08,25,10,15,23.70
2016,08,25,10,16,23.70
2016,08,25,10,17,23.70
2016,08,25,10,18,23.60
2016,08,25,10,19,23.60
2016,08,25,10,20,23.60
2016,08,25,10,21,23.60
2016,08,25,10,22,23.70
2016,08,25,10,23,23.60
2016,08,25,10,24,23.60
2016,08,25,10,25,23.70
2016,08,25,10,26,23.60
2016,08,25,10,27,23.60
2016,08,25,10,28,23.70
2016,08,25,10,29,23.70
2016,08,25,10,30,23.60
2016,08,25,10,31,23.50
2016,08,25,10,32,23.40
2016,08,25,10,33,23.30
2016,08,25,10,34,23.30
2016,08,25,10,35,23.30
2016,08,25,10,36,23.30
2016,08,25,10,37,23.30
2016,08,25,10,38,23.40
2016,08,25,10,39,23.40
2016,08,25,10,40,23.50
2016,08,25,10,41,23.60
2016,08,25,10,42,23.70
2016,08,25,10,43,23.70
2016,08,25,10,44,23.70
2016,08,25,10,45,23.70
2016,08,25,10,46,23.80
2016,08,25,10,47,23.90
2016,08,25,10,48,23.90
2016,08,25,10,49,23.90
2016,08,25,10,50,24.00
2016,08,25,10,51,24.10
2016,08,25,10,52,24.10
2016,08,25,10,53,24.10
2016,08,25,10,54,24.10
2016,08,25,10,55,24.10
2016,08,25,10,56,24.00
2016,08,25,10,57,23.90
2016,08,25,10,58,23.80
2016,08,25,10,59,23.70
2016,08,25,11,00,23.60
2016,08,25,11,01,23.50
2016,08,25,11,02,23.40
2016,08,25,11,03,23.40
2016,08,25,11,04,23.30
2016,08,25,11,05,23.30
2016,08,25,11,06,23.30
2016,08,25,11,07,23.20
2016,08,25,11,08,23.10
2016,08,25,11,09,23.10
2016,08,25,11,10,23.00
2016,08,25,11,11,22.90
2016,08,25,11,12,22.80
2016,08,25,11,13,22.60
2016,08,25,11,14,22.60
2016,08,25,11,15,22.50
2016,08,25,11,16,22.40
2016,08,25,11,17,22.30
2016,08,25,11,18,22.10
2016,08,25,11,19,22.00
2016,08,25,11,20,21.90
2016,08,25,11,21,21.80
2016,08,25,11,22,21.70
2016,08,25,11,23,21.60
2016,08,25,11,24,21.60
2016,08,25,11,25,21.60
2016,08,25,11,26,21.50
2016,08,25,11,27,21.40
2016,08,25,11,28,21.30
2016,08,25,11,29,21.30
2016,08,25,11,30,21.30
2016,08,25,11,31,21.30
2016,08,25,11,32,21.20
2016,08,25,11,33,21.10
2016,08,25,11,34,21.20
2016,08,25,11,35,21.20
2016,08,25,11,36,21.30
2016,08,25,11,37,21.30
2016,08,25,11,38,21.30
2016,08,25,11,39,21.40
2016,08,25,11,40,21.40
2016,08,25,11,41,21.50
2016,08,25,11,42,21.60
2016,08,25,11,43,21.60
2016,08,25,11,44,21.70
2016,08,25,11,45,21.80
2016,08,25,11,46,21.80
2016,08,25,11,47,21.70
2016,08,25,11,48,21.70
2016,08,25,11,49,21.70
2016,08,25,11,50,21.70
2016,08,25,11,51,21.80
2016,08,25,11,52,21.90
2016,08,25,11,53,22.00
2016,08,25,11,54,22.10
2016,08,25,11,55,22.20
2016,08,25,11,56,22.30
2016,08,25,11,57,22.40
2016,08,25,11,58,22.50
2016,08,25,11,59,22.60
2016,08,25,12,00,22.60
2016,08,25,12,01,22.50
2016,08,25,12,02,22.50
2016,08,25,12,03,22.40
2016,08,25,12,04,22.30
2016,08,25,12,05,22.20
2016,08,25,12,06,22.10
2016,08,25,12,07,22.00
2016,08,25,12,08,22.00
2016,08,25,12,09,22.10
2016,08,25,12,10,22.10
2016,08,25,12,11,22.20
2016,08,25,12,12,22.20
2016,08,25,12,13,22.30
2016,08,25,12,14,22.40
2016,08,25,12,15,22.50
2016,08,25,12,16,22.60
2016,08,25,12,17,22.60
2016,08,25,12,18,22.70
2016,08,25,12,19,22.80
2016,08,25,12,20,22.80
2016,08,25,12,21,22.80
2016,08,25,12,22,22.70
2016,08,25,12,23,22.70
2016,08,25,12,24,22.70
2016,08,25,12,25,22.80
2016,08,25,12,26,22.90
2016,08,25,12,27,22.90
2016,08,25,12,28,23.00
2016,08,25,12,29,23.10
2016,08,25,12,30,23.10
2016,08,25,12,31,23.20
2016,08,25,12,32,23.30
2016,08,25,12,33,23.20
2016,08,25,12,34,23.30
2016,08,25,12,35,23.30
2016,08,25,12,36,23.30
2016,08,25,12,37,23.40
2016,08,25,12,38,23.60
2016,08,25,12,39,23.70
2016,08,25,12,40,23.80
2016,08,25,12,41,23.70
2016,08,25,12,42,23.70
2016,08,25,12,43,23.70
2016,08,25,12,44,23.70
2016,08,25,12,45,23.90
2016,08,25,12,46,24.00
2016,08,25,12,47,24.10
2016,08,25,12,48,24.10
2016,08,25,12,49,24.30
2016,08,25,12,50,24.40
2016,08,25,12,51,24.60
2016,08,25,12,52,24.70
2016,08,25,12,53,24.70
2016,08,25,12,54,24.80
2016,08,25,12,55,24.90
2016,08,25,12,56,24.90
2016,08,25,12,57,24.90
2016,08,25,12,58,24.90
2016,08,25,12,59,25.10
2016,08,25,13,00,25.10
2016,08,25,13,01,25.10
2016,08,25,13,02,25.20
2016,08,25,13,03,25.30
2016,08,25,13,04,25.50
2016,08,25,13,05,25.70
2016,08,25,13,06,25.90
2016,08,25,13,07,25.90
2016,08,25,13,08,26.00
2016,08,25,13,09,26.10
2016,08,25,13,10,26.10
2016,08,25,13,11,26.30
2016,08,25,13,12,26.40
2016,08,25,13,13,26.50
2016,08,25,13,14,26.60
2016,08,25,13,15,26.70
2016,08,25,13,16,26.80
2016,08,25,13,17,26.90
2016,08,25,13,18,27.10
2016,08,25,13,19,27.20
2016,08,25,13,20,27.30
2016,08,25,13,21,27.30
2016,08,25,13,22,27.40
2016,08,25,13,23,27.50
2016,08,25,13,24,27.50
2016,08,25,13,25,27.40
2016,08,25,13,26,27.40
2016,08,25,13,27,27.50
2016,08,25,13,28,27.60
2016,08,25,13,29,27.60
2016,08,25,13,30,27.70
2016,08,25,13,31,27.70
2016,08,25,13,32,27.70
2016,08,25,13,33,27.80
2016,08,25,13,34,27.90
2016,08,25,13,35,28.00
2016,08,25,13,36,28.10
2016,08,25,13,37,28.20
2016,08,25,13,38,28.20
2016,08,25,13,39,28.40
2016,08,25,13,40,28.50
2016,08,25,13,41,28.60
2016,08,25,13,42,28.60
2016,08,25,13,43,28.70
2016,08,25,13,44,28.70
2016,08,25,13,45,28.70
2016,08,25,13,46,28.80
2016,08,25,13,47,28.90
2016,08,25,13,48,29.00
2016,08,25,13,49,29.10
2016,08,25,13,50,29.00
2016,08,25,13,51,28.90
2016,08,25,13,52,28.70
2016,08,25,13,53,28.30
2016,08,25,13,54,28.10
2016,08,25,13,55,27.80
2016,08,25,13,56,27.50
2016,08,25,13,57,27.30
2016,08,25,13,58,27.00
2016,08,25,13,59,26.80
2016,08,25,14,00,26.70
2016,08,25,14,01,26.60
2016,08,25,14,02,26.50
2016,08,25,14,03,26.40
2016,08,25,14,04,26.30
2016,08,25,14,05,26.30
2016,08,25,14,06,26.30
2016,08,25,14,07,26.30
2016,08,25,14,08,26.20
2016,08,25,14,09,26.20
2016,08,25,14,10,26.30
2016,08,25,14,11,26.30
2016,08,25,14,12,26.00
2016,08,25,14,13,25.80
2016,08,25,14,14,25.80
2016,08,25,14,15,25.70
2016,08,25,14,16,25.80
2016,08,25,14,17,25.80
2016,08,25,14,18,25.80
2016,08,25,14,19,25.90
2016,08,25,14,20,26.00
2016,08,25,14,21,26.00
2016,08,25,14,22,26.10
2016,08,25,14,23,26.10
2016,08,25,14,24,26.20
2016,08,25,14,25,26.30
2016,08,25,14,26,26.40
2016,08,25,14,27,26.50
2016,08,25,14,28,26.60
2016,08,25,14,29,26.60
2016,08,25,14,30,26.60
2016,08,25,14,31,26.60
2016,08,25,14,32,26.60
2016,08,25,14,33,26.50
2016,08,25,14,34,26.40
2016,08,25,14,35,26.40
2016,08,25,14,36,26.40
2016,08,25,14,37,26.40
2016,08,25,14,38,26.30
2016,08,25,14,39,26.20
2016,08,25,14,40,26.20
2016,08,25,14,41,26.10
2016,08,25,14,42,26.00
2016,08,25,14,43,26.00
2016,08,25,14,44,26.20
2016,08,25,14,45,26.30
2016,08,25,14,46,26.30
2016,08,25,14,47,26.30
2016,08,25,14,48,26.30
2016,08,25,14,49,26.40
2016,08,25,14,50,26.30
2016,08,25,14,51,26.10
2016,08,25,14,52,26.10
2016,08,25,14,53,26.20
2016,08,25,14,54,26.30
2016,08,25,14,55,26.20
2016,08,25,14,56,26.20
2016,08,25,14,57,26.10
2016,08,25,14,58,26.10
2016,08,25,14,59,26.20
2016,08,25,15,00,26.20
2016,08,25,15,01,26.20
2016,08,25,15,02,26.10
2016,08,25,15,03,26.20
2016,08,25,15,04,26.30
2016,08,25,15,05,26.20
2016,08,25,15,06,26.20
2016,08,25,15,07,26.10
2016,08,25,15,08,25.90
2016,08,25,15,09,25.90
2016,08,25,15,10,26.00
2016,08,25,15,11,26.30
2016,08,25,15,12,26.40
2016,08,25,15,13,26.60
2016,08,25,15,14,26.60
2016,08,25,15,15,26.70
2016,08,25,15,16,26.70
2016,08,25,15,17,26.70
2016,08,25,15,18,26.70
2016,08,25,15,19,26.80
2016,08,25,15,20,26.70
2016,08,25,15,21,26.60
2016,08,25,15,22,26.60
2016,08,25,15,23,26.60
2016,08,25,15,24,26.60
2016,08,25,15,25,26.50
2016,08,25,15,26,26.50
2016,08,25,15,27,26.60
2016,08,25,15,28,26.60
2016,08,25,15,29,26.70
2016,08,25,15,30,26.70
2016,08,25,15,31,26.70
2016,08,25,15,32,26.80
2016,08,25,15,33,27.00
2016,08,25,15,34,27.20
2016,08,25,15,35,27.30
2016,08,25,15,36,27.40
2016,08,25,15,37,27.50
2016,08,25,15,38,27.60
2016,08,25,15,39,27.70
2016,08,25,15,40,27.70
2016,08,25,15,41,27.60
2016,08,25,15,42,27.60
2016,08,25,15,43,27.50
2016,08,25,15,44,27.40
2016,08,25,15,45,27.30
2016,08,25,15,46,27.30
2016,08,25,15,47,27.30
2016,08,25,15,48,27.20
2016,08,25,15,49,27.10
2016,08,25,15,50,27.00
2016,08,25,15,51,26.90
2016,08,25,15,52,26.80
2016,08,25,15,53,26.80
2016,08,25,15,54,26.80
2016,08,25,15,55,26.80
2016,08,25,15,56,26.90
2016,08,25,15,57,26.90
2016,08,25,15,58,26.90
2016,08,25,15,59,26.80
2016,08,25,16,00,26.70
2016,08,25,16,01,26.60
2016,08,25,16,02,26.60
2016,08,25,16,03,26.60
2016,08,25,16,04,26.70
2016,08,25,16,05,26.60
2016,08,25,16,06,26.60
2016,08,25,16,07,26.60
2016,08,25,16,08,26.60
2016,08,25,16,09,26.60
2016,08,25,16,10,26.70
2016,08,25,16,11,26.80
2016,08,25,16,12,26.90
2016,08,25,16,13,27.00
2016,08,25,16,14,27.10
2016,08,25,16,15,27.10
2016,08,25,16,16,27.20
2016,08,25,16,17,27.30
2016,08,25,16,18,27.40
2016,08,25,16,19,27.50
2016,08,25,16,20,27.60
2016,08,25,16,21,27.80
2016,08,25,16,22,27.90
2016,08,25,16,23,28.00
2016,08,25,16,24,28.00
2016,08,25,16,25,28.00
2016,08,25,16,26,28.00
2016,08,25,16,27,28.10
2016,08,25,16,28,28.10
2016,08,25,16,29,28.20
2016,08,25,16,30,28.40
2016,08,25,16,31,28.50
2016,08,25,16,32,28.60
2016,08,25,16,33,28.70
2016,08,25,16,34,28.80
2016,08,25,16,35,28.90
2016,08,25,16,36,28.90
2016,08,25,16,37,28.90
2016,08,25,16,38,29.00
2016,08,25,16,39,29.10
2016,08,25,16,40,29.20
2016,08,25,16,41,29.30
2016,08,25,16,42,29.50
2016,08,25,16,43,29.60
2016,08,25,16,44,29.80
2016,08,25,16,45,29.90
2016,08,25,16,46,30.00
2016,08,25,16,47,30.10
2016,08,25,16,48,30.20
2016,08,25,16,49,30.30
2016,08,25,16,50,30.50
2016,08,25,16,51,30.60
2016,08,25,16,52,30.70
2016,08,25,16,53,30.80
2016,08,25,16,54,30.80
2016,08,25,16,55,30.90
2016,08,25,16,56,31.00
2016,08,25,16,57,31.10
2016,08,25,16,58,31.20
2016,08,25,16,59,31.30
2016,08,25,17,00,31.30
2016,08,25,17,01,31.20
2016,08,25,17,02,31.10
2016,08,25,17,03,31.00
2016,08,25,17,04,30.80
2016,08,25,17,05,30.70
2016,08,25,17,06,30.60
2016,08,25,17,07,30.40
2016,08,25,17,08,30.30
2016,08,25,17,09,30.30
2016,08,25,17,10,30.20
2016,08,25,17,11,30.10
2016,08,25,17,12,29.90
2016,08,25,17,13,29.80
2016,08,25,17,14,29.80
2016,08,25,17,15,29.70
2016,08,25,17,16,29.70
2016,08,25,17,17,29.60
2016,08,25,17,18,29.60
2016,08,25,17,19,29.60